N2TPQ-13 Weather Reports


time (UTC)temp
F
wind
direction
speed
knots
gust
knots
rain 1hr
in
rain 24hr
in
rain mn
in
humidity
%
barometer
mb
20260505003038 64 0 0.0 2.6 0.00 0.00 0.00 48 1007.2
20260505001537 65 0 0.0 0.0 0.00 0.00 0.00 47 1007.1
20260505000040 66 0 0.0 3.5 0.00 0.00 0.00 45 1006.9
20260504234537 67 0 0.0 1.7 0.00 0.00 0.00 44 1007.0
20260504233041 69 0 0.0 4.3 0.00 0.00 0.00 41 1006.9
20260504231541 69 195 1.7 10.4 0.00 0.00 0.00 38 1006.7
20260504230039 71 209 0.0 5.2 0.00 0.00 0.00 35 1006.7
20260504224541 72 0 0.0 9.6 0.00 0.00 0.00 32 1006.7
20260504223037 72 163 1.7 7.8 0.00 0.00 0.00 35 1006.8
20260504221538 72 161 0.9 7.0 0.00 0.00 0.00 32 1006.8
20260504220036 72 178 1.7 8.7 0.00 0.00 0.00 33 1007.0
20260504214548 73 0 3.5 10.4 0.00 0.00 0.00 32 1007.0
20260504213047 73 161 1.7 8.7 0.00 0.00 0.00 34 1006.9
20260504211538 73 198 5.2 13.9 0.00 0.00 0.00 31 1006.9
20260504210037 71 163 4.3 10.4 0.00 0.00 0.00 34 1007.3
20260504204539 73 200 2.6 11.3 0.00 0.00 0.00 33 1007.2
20260504203041 72 321 1.7 7.8 0.00 0.00 0.00 33 1007.2
20260504201538 73 229 0.9 7.8 0.00 0.00 0.00 36 1007.3
20260504200043 71 117 4.3 11.3 0.00 0.00 0.00 38 1007.5
20260504194546 71 0 2.6 9.6 0.00 0.00 0.00 42 1007.7
20260504193040 69 194 2.6 10.4 0.00 0.00 0.00 38 1008.0
20260504191551 70 205 4.3 9.6 0.00 0.00 0.00 40 1008.1
20260504190043 70 197 2.6 7.0 0.00 0.00 0.00 42 1008.2
20260504184551 70 192 0.0 10.4 0.00 0.00 0.00 46 1008.3
20260504183047 69 157 2.6 13.9 0.00 0.00 0.00 42 1008.6
20260504181545 70 166 3.5 9.6 0.00 0.00 0.00 42 1008.8
20260504180041 69 339 1.7 8.7 0.00 0.00 0.00 44 1008.8
20260504174542 68 202 3.5 14.8 0.00 0.00 0.00 44 1008.9
20260504173040 67 254 2.6 11.3 0.00 0.00 0.00 44 1009.0
20260504171538 67 194 3.5 12.2 0.00 0.00 0.00 45 1008.9
20260504081541 42 0 0.9 2.6 0.00 0.00 0.00 80 1011.7
20260504044543 45 0 0.0 0.9 0.00 0.00 0.00 71 1012.1
20260504043040 46 0 0.0 0.0 0.00 0.00 0.00 69 1012.1
20260504041538 47 0 0.0 0.9 0.00 0.00 0.00 69 1012.1
20260504040046 48 0 0.0 1.7 0.00 0.00 0.00 68 1012.2
20260504034555 48 0 0.0 0.0 0.00 0.00 0.00 65 1012.3
20260504033050 49 0 0.0 0.0 0.00 0.00 0.00 62 1012.3
20260504031541 50 0 0.0 0.0 0.00 0.00 0.00 56 1012.4
20260504030045 51 0 0.0 0.0 0.00 0.00 0.00 58 1012.4
20260504024537 51 0 0.0 0.0 0.00 0.00 0.00 53 1012.5
20260504023057 51 0 0.0 0.9 0.00 0.00 0.00 55 1012.7
20260504021539 52 0 0.0 0.0 0.00 0.00 0.00 52 1012.7
20260504020039 52 0 0.0 2.6 0.00 0.00 0.00 52 1012.7
20260504014546 52 133 1.7 8.7 0.00 0.00 0.00 52 1012.7
20260504013044 52 208 2.6 10.4 0.00 0.00 0.00 51 1012.9
20260504011536 53 355 2.6 10.4 0.00 0.00 0.00 48 1012.9
20260504010051 53 46 0.9 10.4 0.00 0.00 0.00 48 1012.6
20260504004555 52 188 2.6 9.6 0.00 0.00 0.00 51 1012.6